GFSSGP_925_temp_072.txt.gz
Temp
21 22 22 22 22 23 24 25 27 29 30 30 29 29 27 24 26 23 20 22 22 22 21 21 21 21 21 22 21 21 21 21 21 21 20 20 21 21 20 20 20 21 20 21 21 21 21 22 22
22 22 22 22 24 24 25 24 29 29 29 29 29 29 27 24 23 21 20 22 23 22 21 21 21 21 21 22 21 21 22 21 21 21 21 20 21 21 20 21 21 20 20 21 20 20 21 22 22
24 24 22 23 24 24 25 24 28 29 30 29 28 27 26 22 22 21 21 22 22 22 22 21 21 21 21 21 21 21 21 21 21 21 21 21 21 21 21 21 21 20 20 21 21 21 21 20 22
23 23 23 23 25 26 26 27 29 28 28 27 27 24 25 24 23 22 22 22 22 21 21 21 21 21 21 21 21 21 21 21 21 21 21 21 20 21 20 21 21 21 21 21 21 20 20 21 22
23 23 24 24 25 25 28 27 27 28 26 27 27 25 24 24 23 22 22 22 22 21 21 21 21 21 21 21 21 21 21 21 21 21 21 21 21 21 21 20 21 21 21 20 21 20 21 22 22
23 23 24 25 24 27 29 27 27 26 27 27 25 25 23 24 23 23 22 22 22 22 21 21 21 21 21 21 21 21 21 21 21 21 21 21 20 21 21 21 21 21 21 21 20 20 21 22 22
24 24 25 26 26 25 26 26 28 27 27 26 27 24 23 24 24 24 22 22 22 22 21 21 21 21 21 21 21 21 21 21 21 21 21 21 21 21 21 21 21 21 21 21 21 21 22 21 22
25 24 25 24 25 25 25 26 29 28 28 28 28 24 23 24 24 23 22 22 22 22 22 21 21 21 21 21 21 21 21 21 21 21 21 21 21 21 21 21 21 21 21 21 21 22 22 22 22
28 24 25 26 25 27 26 25 27 28 27 28 27 26 26 25 24 23 22 21 21 21 22 21 21 21 21 21 21 21 21 22 22 21 21 21 21 21 21 21 21 21 21 21 22 23 23 23 22
25 23 27 29 27 25 26 25 25 26 27 28 26 27 27 26 24 23 22 21 21 21 21 22 22 22 22 22 21 22 22 23 22 22 22 22 21 22 22 21 21 21 22 23 23 23 23 23 23
27 26 28 29 28 27 26 24 24 25 26 26 25 26 27 26 25 24 23 22 22 22 22 22 23 23 23 23 22 23 23 23 23 23 22 22 22 22 23 22 22 22 23 24 24 24 24 23 23
26 29 30 30 28 27 25 23 23 23 24 26 26 27 27 26 26 24 24 23 22 22 23 23 23 23 23 24 23 23 23 23 23 23 23 23 23 23 23 23 23 23 24 24 24 24 25 24 24
28 29 31 32 30 27 25 24 23 23 24 26 27 27 26 26 26 25 25 24 23 23 23 23 24 24 24 24 24 23 23 23 23 24 24 23 23 23 23 23 23 23 24 24 24 25 25 24 25
30 30 31 33 27 27 26 25 26 25 26 25 26 27 26 27 27 26 25 25 24 24 24 24 24 24 24 25 24 24 24 23 23 24 25 24 24 24 23 23 24 24 24 24 24 24 23 24 25
30 29 30 30 28 27 26 24 25 23 27 26 27 27 27 26 27 27 26 26 25 24 25 24 24 24 25 24 24 24 24 24 24 24 24 24 24 24 24 24 24 24 24 24 24 25 25 24 24
29 28 28 30 28 27 27 25 23 25 26 25 26 27 27 26 27 28 27 26 25 25 25 25 24 25 25 25 25 26 25 25 25 25 25 24 24 24 24 24 24 24 24 24 24 25 25 25 24
24 26 27 29 30 27 27 24 23 24 24 26 27 27 27 26 27 28 27 26 26 25 25 25 25 25 26 26 26 25 25 25 25 25 25 24 24 24 24 25 25 25 24 24 25 25 25 25 25
26 26 26 27 31 29 25 24 24 24 25 26 27 27 27 27 26 28 26 26 26 26 26 26 26 26 26 25 25 25 25 25 25 25 24 24 24 24 25 25 25 25 24 25 25 25 25 25 25
27 27 26 29 30 31 29 24 24 23 24 25 25 25 27 27 28 28 27 25 25 26 26 26 25 26 26 25 25 25 25 25 25 25 25 24 24 25 24 25 25 25 25 25 25 25 25 25 24
27 26 26 28 30 27 24 23 22 23 24 24 25 25 27 27 28 28 28 25 25 25 26 26 26 26 26 26 26 26 25 25 25 25 25 24 24 25 25 25 25 25 25 24 25 25 25 25 26
26 25 26 27 28 26 26 24 24 24 25 24 25 25 26 27 28 27 29 25 25 25 25 26 26 26 26 26 26 25 25 25 25 25 25 25 24 24 24 24 25 24 25 25 25 25 26 26 26
24 27 29 29 28 26 28 25 24 24 23 23 24 23 24 27 28 28 28 26 25 25 25 26 26 26 26 26 26 25 25 24 24 25 25 25 25 24 25 25 24 25 25 25 25 25 25 26 25
26 28 28 30 27 27 28 25 24 24 23 23 23 24 25 26 28 29 28 27 25 25 25 26 26 26 26 26 26 25 25 25 26 26 26 25 25 25 25 25 24 24 25 25 24 24 25 25 25
29 28 25 24 24 23 25 26 24 22 25 24 24 24 25 26 27 29 29 27 26 25 25 25 25 25 25 25 26 26 25 25 25 25 25 25 25 25 25 25 25 25 25 25 25 25 25 25 25
29 23 21 23 23 22 24 25 25 26 26 26 25 25 26 25 27 29 28 27 26 25 25 24 24 24 25 25 25 26 25 25 25 25 25 25 25 25 25 25 25 25 25 25 25 24 24 25 25
27 23 21 23 22 23 24 26 28 27 28 28 27 26 27 26 23 26 28 27 26 25 25 24 23 24 25 25 25 26 26 25 25 26 26 26 25 26 25 25 25 25 25 25 25 24 24 25 25
27 25 24 23 22 22 23 25 27 29 28 27 26 25 25 25 26 26 24 27 26 25 25 24 23 24 24 25 25 25 25 25 25 26 25 26 26 26 26 25 25 25 25 25 24 24 24 24 25
21 23 24 19 23 24 23 25 25 26 26 27 26 26 25 24 24 24 24 25 26 26 25 24 24 24 24 24 24 25 25 25 26 26 25 25 26 27 26 26 25 25 25 25 25 25 25 24 25
20 20 20 20 20 21 22 23 27 25 24 25 25 27 26 24 25 25 23 23 26 27 26 25 24 24 23 23 23 24 24 25 25 25 26 26 26 26 26 26 26 25 25 25 25 25 25 24 25
22 19 17 17 19 19 20 22 25 25 25 25 24 27 26 25 26 23 24 25 24 24 25 25 24 24 24 23 23 23 24 25 24 25 26 26 26 26 26 27 26 26 26 25 25 25 25 25 25

GFSSGP_925_temp_075.txt.gz
Temp
20 21 21 21 22 23 23 24 26 27 28 27 27 28 26 24 25 23 19 22 23 21 21 21 21 21 21 21 21 21 21 20 21 21 20 20 21 21 21 20 20 20 20 20 21 21 21 21 21
21 21 21 21 24 24 24 25 25 27 28 28 27 27 25 22 22 20 20 21 23 21 21 21 21 21 21 21 21 21 21 20 21 21 20 21 21 20 21 20 20 20 20 20 20 20 21 21 21
21 22 22 23 24 24 24 24 26 26 29 28 25 23 24 21 21 20 21 22 22 21 21 21 21 21 21 21 21 21 21 21 21 21 20 20 20 21 20 20 20 20 21 20 20 20 21 21 21
21 22 22 23 24 26 25 26 28 27 26 26 24 23 23 23 22 20 21 22 22 21 21 21 21 21 21 21 21 21 21 21 21 21 20 21 21 20 20 20 20 20 20 20 20 20 20 21 21
22 23 23 24 25 25 27 26 25 25 26 26 26 24 22 22 22 20 21 22 22 21 21 21 21 21 21 21 21 21 21 21 21 21 21 20 20 20 20 21 20 20 21 21 20 20 21 22 21
22 23 24 25 25 26 28 27 25 25 26 25 24 24 22 21 21 20 21 22 22 21 21 21 21 21 21 21 21 21 21 21 21 21 21 20 21 21 20 20 20 21 21 21 20 20 21 22 22
23 23 24 24 27 26 25 26 25 26 26 25 26 23 21 22 21 21 21 22 21 21 21 21 21 21 21 21 21 21 21 21 21 21 20 21 21 21 21 21 21 21 21 21 20 21 21 21 21
24 23 25 23 24 25 24 25 25 27 26 27 26 22 21 22 22 21 21 21 21 21 21 21 21 21 21 21 21 21 21 21 21 20 20 21 21 21 21 21 21 21 21 21 20 21 22 22 22
26 24 25 25 26 26 24 25 26 25 26 27 27 24 23 22 21 20 20 20 20 20 21 21 21 21 21 21 21 21 21 21 21 20 20 21 21 21 21 21 21 21 21 20 21 22 22 22 22
24 23 26 28 27 25 25 23 22 23 26 26 24 25 24 21 21 20 20 20 20 20 21 21 21 21 21 21 21 21 22 22 21 21 21 21 21 21 21 21 21 21 21 22 22 22 22 22 22
25 24 27 28 28 24 23 23 23 24 25 25 24 24 23 22 22 21 20 20 20 20 21 21 21 22 21 21 22 22 22 22 22 21 21 21 21 21 21 21 21 21 22 22 23 23 23 23 23
25 27 27 28 28 27 25 23 22 23 24 24 25 25 23 23 22 22 21 21 20 20 21 22 22 22 22 22 22 23 22 22 22 22 22 22 22 22 23 23 23 23 23 23 23 23 24 24 23
26 27 28 29 30 26 24 24 24 23 23 24 26 26 24 23 23 23 22 21 21 21 21 22 22 22 22 23 23 22 22 22 22 22 23 23 23 23 23 24 24 24 23 23 23 23 23 23 23
28 28 28 29 26 25 25 24 25 25 23 23 26 26 25 25 24 23 22 22 21 22 22 22 22 23 23 23 23 23 23 23 23 23 23 23 23 23 23 23 24 24 24 24 23 23 23 23 24
27 27 28 26 26 26 25 24 25 25 25 24 26 26 26 26 24 24 23 22 23 23 23 22 23 23 24 24 24 24 23 24 23 23 23 23 24 24 24 23 24 24 24 24 24 24 24 23 24
27 26 26 27 27 25 26 24 24 23 23 25 25 26 26 26 25 25 24 23 23 23 24 23 23 24 24 24 24 24 24 24 24 23 23 23 24 24 24 24 24 24 24 24 25 24 24 24 24
23 25 27 28 26 25 25 24 24 24 23 24 25 26 26 25 25 25 25 24 23 24 24 24 23 24 24 24 24 24 24 24 24 24 24 24 24 24 24 24 24 24 24 24 25 25 24 24 24
25 26 26 27 27 28 25 24 23 24 24 25 26 26 26 26 25 27 26 25 24 24 25 25 24 24 24 24 24 24 24 25 24 24 24 24 24 24 24 24 24 24 24 25 24 24 24 25 24
26 26 25 27 29 29 25 24 24 23 23 24 25 25 26 26 26 27 26 25 24 24 24 24 24 24 24 25 24 25 25 24 24 24 24 24 24 24 24 24 24 24 24 24 24 25 25 24 24
26 25 25 26 27 25 23 23 23 24 23 24 25 25 26 26 26 26 26 25 24 23 24 24 24 25 25 25 25 25 25 24 24 24 24 24 24 24 24 24 24 24 24 25 25 25 24 24 24
25 24 25 26 27 24 24 24 23 24 23 23 24 25 26 27 27 26 25 25 24 23 23 24 25 25 25 25 25 25 25 24 24 24 24 24 24 24 24 24 24 24 25 25 25 25 25 25 24
23 24 26 27 26 25 26 23 23 23 23 24 23 24 25 27 28 26 25 24 24 24 24 25 25 25 26 25 25 25 25 24 24 25 24 24 24 24 24 24 25 24 24 24 25 25 25 25 25
25 26 26 27 26 26 26 24 23 23 22 23 23 25 25 26 28 26 25 25 24 24 24 24 25 25 25 25 25 25 25 25 25 25 24 24 24 24 24 24 24 24 24 24 24 24 25 25 25
27 26 24 21 21 22 25 25 23 21 23 24 23 24 25 24 25 27 27 25 25 24 23 24 24 25 25 25 25 25 25 25 25 25 24 25 24 24 24 24 24 24 24 24 24 24 24 24 25
24 22 21 23 22 22 23 24 25 24 24 25 24 24 25 25 25 27 26 25 24 24 23 23 24 24 25 25 26 26 25 25 25 25 25 25 24 24 24 24 24 24 24 24 24 24 24 24 25
26 23 20 23 21 23 22 24 27 26 26 26 26 25 25 25 25 26 27 26 25 24 23 23 23 23 25 25 26 26 26 25 25 25 25 25 25 25 25 25 24 24 24 24 24 24 24 24 24
23 21 22 19 19 22 22 25 26 25 25 24 24 25 24 24 25 25 26 26 25 25 24 23 23 23 24 25 25 26 26 25 25 25 25 24 25 25 25 25 25 24 24 24 24 24 24 24 24
20 21 21 18 21 23 22 22 22 23 23 23 23 24 24 24 24 24 25 25 25 25 24 24 23 23 24 24 24 25 26 26 25 25 25 25 25 25 25 25 25 25 25 24 24 24 24 24 24
17 17 16 17 17 19 20 20 23 21 22 22 22 22 23 25 24 24 25 25 25 25 25 24 23 23 23 23 23 24 25 26 26 25 25 25 25 25 25 25 25 25 25 24 24 24 24 24 24
19 17 15 15 17 16 18 19 21 21 22 22 22 22 22 24 24 24 24 24 23 24 24 24 24 23 23 23 23 23 24 25 25 26 26 25 25 25 25 25 26 25 25 25 25 24 24 24 24

GFSSGP_925_temp_081.txt.gz
Temp
20 20 20 22 23 23 25 26 27 27 26 28 28 27 27 27 26 26 20 21 21 21 21 21 21 20 21 20 21 21 21 20 20 21 20 20 20 20 20 20 21 20 21 21 21 21 21 21 21
20 20 21 21 23 24 25 26 26 28 28 28 27 27 27 25 23 21 21 21 21 21 21 21 21 21 21 21 21 21 20 21 21 21 21 21 20 21 20 20 21 21 21 21 21 21 21 21 21
21 21 24 24 24 25 26 26 27 28 28 28 25 25 25 23 21 22 21 21 21 21 21 21 21 21 21 21 21 21 21 21 21 21 21 21 21 20 21 21 20 20 20 21 21 21 21 22 22
22 23 23 25 25 26 27 27 28 26 27 25 25 24 23 22 22 21 21 21 22 21 22 21 21 21 21 21 21 21 21 21 21 21 21 21 21 20 20 20 20 20 20 21 21 21 22 22 21
22 23 25 26 26 27 27 25 27 27 26 24 25 23 21 22 21 21 21 22 22 22 22 22 21 21 21 21 21 21 21 21 21 21 21 21 21 21 21 20 20 20 20 20 20 21 22 22 21
24 24 24 26 27 27 25 25 27 26 26 24 23 24 22 20 21 21 22 22 22 22 22 22 21 21 21 21 21 21 20 21 20 21 21 21 21 20 21 21 21 20 20 20 21 21 22 22 22
25 24 25 25 26 24 25 26 26 26 26 25 25 24 21 21 22 21 22 22 22 22 22 22 22 21 21 21 21 21 21 21 21 21 21 21 21 20 21 21 21 21 21 20 21 21 22 22 22
25 24 26 25 26 24 24 25 23 25 25 26 26 24 22 21 21 21 22 22 22 22 22 21 22 22 22 21 21 21 21 21 21 21 20 20 21 21 20 21 21 21 21 20 22 22 22 22 22
26 25 27 27 27 24 23 23 22 23 25 26 26 26 24 22 21 22 22 22 21 21 22 22 22 21 21 21 21 21 21 21 21 21 21 21 21 21 22 21 21 21 20 21 21 22 22 22 22
25 23 27 29 27 25 23 23 23 22 25 23 23 24 22 22 22 23 22 21 22 22 22 22 21 21 21 22 21 21 21 21 20 20 20 20 21 21 21 21 21 21 21 21 22 22 22 22 22
26 27 28 28 27 27 24 23 23 23 25 24 22 22 22 23 23 23 23 22 23 21 22 21 21 21 21 21 21 21 21 21 21 21 20 20 21 21 21 21 21 21 21 22 22 22 21 21 22
25 27 28 28 27 27 26 24 24 24 23 24 24 23 23 24 24 23 23 23 23 21 21 21 21 21 21 21 21 21 21 21 21 20 21 21 21 21 21 21 21 22 21 22 22 22 22 22 22
26 28 28 29 28 27 25 25 24 23 22 24 24 23 24 24 24 23 23 22 22 22 21 21 21 20 20 20 21 21 21 22 21 21 22 21 21 21 21 21 21 21 21 22 22 22 22 22 22
28 28 29 29 29 27 26 25 26 22 21 22 24 24 24 24 24 23 22 22 22 22 21 21 21 20 20 21 21 21 21 21 22 22 22 22 22 22 21 21 21 22 22 23 23 22 22 22 22
28 28 28 27 27 26 27 24 25 24 21 23 24 25 25 24 24 23 23 23 22 22 21 21 21 21 20 21 22 21 21 22 21 22 23 23 22 22 23 22 22 22 23 23 23 23 22 23 23
28 29 30 27 28 26 27 27 24 24 23 23 24 25 25 25 24 24 23 23 22 22 21 21 21 21 21 21 22 22 22 22 22 23 23 23 23 23 23 22 22 23 23 22 23 22 23 23 23
28 29 30 28 28 27 27 28 26 24 24 25 24 25 25 25 25 24 24 23 23 22 21 21 21 21 21 22 22 22 22 23 22 23 23 23 23 23 23 23 23 23 23 23 23 23 23 23 23
28 29 29 29 28 28 27 28 25 25 24 25 25 25 26 26 26 25 24 24 23 22 22 21 21 21 22 22 22 21 22 22 22 23 23 23 23 23 23 23 24 24 22 23 23 23 24 23 23
28 29 29 29 29 29 29 29 28 26 24 24 25 25 26 27 26 26 25 24 23 23 22 21 21 22 22 21 22 22 23 22 22 23 23 23 23 23 23 23 24 24 23 24 24 23 23 23 23
28 28 29 29 28 29 27 26 27 27 26 25 25 25 27 27 27 26 25 25 24 24 22 22 21 21 22 22 22 22 22 22 22 23 24 23 23 23 23 24 24 24 23 24 24 24 23 23 23
27 28 28 29 28 27 27 27 25 25 26 25 26 26 27 27 28 27 26 25 25 24 23 22 23 22 22 21 22 23 23 23 23 23 23 23 23 23 23 24 23 24 24 23 24 24 24 25 23
28 28 28 28 29 30 27 30 26 25 25 25 26 26 27 28 28 28 26 26 25 25 24 23 23 22 23 23 22 22 24 24 24 24 23 23 23 23 23 23 23 24 24 24 24 24 24 25 25
28 27 28 28 28 29 28 31 27 25 25 26 27 26 25 27 28 28 27 26 26 25 24 23 22 23 22 24 23 22 24 24 24 23 24 23 23 23 23 23 23 23 23 24 24 24 24 24 24
27 27 27 27 28 29 30 30 27 26 25 25 26 27 27 26 28 28 27 27 26 25 24 24 22 22 23 24 24 23 23 23 24 24 24 23 23 23 23 23 23 23 23 24 24 24 24 24 24
28 28 27 27 28 29 26 29 25 25 25 25 25 26 28 28 28 28 28 27 26 25 24 24 22 22 22 22 23 23 23 24 24 24 24 24 24 23 23 24 24 23 24 24 23 24 23 24 23
28 29 28 27 27 29 26 27 24 25 25 25 25 25 26 28 28 28 28 27 26 25 24 24 23 23 22 22 23 23 23 23 24 24 24 24 24 24 24 24 24 24 24 24 23 23 23 23 23
25 27 26 26 24 30 27 26 26 25 24 24 23 24 24 24 28 28 27 27 26 25 24 24 23 23 22 23 22 22 23 23 23 24 25 24 25 24 24 24 24 24 24 24 23 23 23 23 23
24 23 27 27 26 28 25 24 25 22 22 22 21 21 22 25 24 27 28 26 26 26 25 24 24 23 23 23 23 23 22 23 23 23 25 24 25 25 24 24 24 24 24 24 24 23 23 24 23
24 24 23 26 24 28 26 24 22 21 20 19 20 20 21 23 25 26 27 26 24 26 25 25 24 23 23 23 23 23 23 22 23 23 23 25 25 25 25 25 23 24 24 24 24 24 23 22 23
20 20 21 28 24 23 26 23 21 20 20 19 19 20 20 20 22 24 25 26 25 25 25 25 25 24 24 23 23 23 23 23 22 22 24 24 24 25 25 25 24 23 23 24 25 24 23 23 23

GFSSGP_925_temp_084.txt.gz
Temp
21 23 24 24 23 26 29 29 29 29 30 31 31 31 31 31 30 28 26 26 25 24 23 22 22 21 21 20 21 21 21 21 21 21 20 20 20 20 21 21 21 21 21 21 21 21 21 21 21
24 23 24 21 24 28 29 29 28 30 31 32 31 31 31 28 28 27 26 25 25 25 24 23 22 21 21 20 20 20 21 21 21 21 21 20 21 20 21 21 21 21 21 21 21 21 21 21 21
24 24 26 26 26 29 29 29 31 30 31 31 29 30 29 27 27 27 26 25 26 26 25 22 21 21 21 21 20 21 21 21 21 21 20 21 21 21 21 21 21 21 21 21 21 22 21 22 21
25 27 27 27 28 30 29 30 30 30 31 29 30 28 26 25 27 27 26 26 26 25 26 22 21 21 21 21 21 21 21 21 21 21 20 20 21 21 20 21 20 21 21 21 22 21 22 21 21
26 28 27 29 28 30 30 30 31 31 29 28 30 26 25 26 26 26 26 26 26 26 25 23 21 21 21 21 21 21 21 21 21 21 20 20 21 20 20 21 20 20 21 21 21 22 23 22 21
27 26 28 29 29 29 29 28 30 31 29 26 28 28 24 25 26 26 26 27 27 27 26 23 21 21 21 21 21 21 21 21 21 21 21 21 20 20 21 21 21 21 21 21 21 22 22 21 21
25 27 30 30 28 28 28 26 28 29 30 27 27 28 26 27 26 26 26 27 27 27 26 25 24 22 21 21 21 21 21 21 21 21 20 20 20 20 21 21 21 21 21 22 21 22 22 22 22
27 28 30 29 29 27 26 24 24 27 28 27 30 28 26 27 26 26 26 27 27 26 26 25 25 24 24 23 21 21 21 21 20 21 20 21 21 21 21 21 21 21 21 22 22 22 22 22 22
29 28 29 30 30 27 26 24 22 23 28 27 28 30 28 26 26 26 26 27 26 26 26 26 25 24 23 23 22 21 21 21 22 21 22 23 24 24 23 22 21 21 21 22 22 22 22 22 22
28 29 30 32 31 28 26 25 23 25 26 27 28 29 26 26 26 27 27 27 27 26 26 26 25 25 24 25 23 22 23 24 24 24 23 24 24 23 23 21 21 21 21 22 22 23 23 23 24
29 29 31 31 31 30 27 25 24 24 27 27 27 27 27 27 27 28 27 27 28 27 26 26 25 25 25 24 25 25 25 24 23 23 24 24 24 24 25 24 24 23 23 25 24 24 25 24 26
29 31 32 32 31 31 29 26 26 26 26 27 26 27 28 28 28 28 28 27 27 26 26 26 24 24 25 24 25 25 25 25 24 23 22 23 24 24 24 24 23 24 25 24 25 25 23 24 24
30 32 32 32 32 31 29 28 27 26 26 26 25 28 28 29 28 28 28 27 27 25 26 25 24 24 24 24 25 25 24 25 24 24 23 24 24 24 24 23 24 24 25 25 25 25 24 25 25
32 32 32 33 33 30 30 28 28 24 25 25 27 28 29 29 29 28 27 27 27 26 25 25 24 23 23 24 24 23 25 24 25 25 23 23 24 24 24 24 24 24 25 25 25 24 25 26 25
32 32 32 32 32 30 31 28 28 24 24 24 28 29 29 29 28 28 27 27 26 26 25 25 24 24 23 23 23 23 24 25 25 25 23 22 23 23 24 24 25 24 23 23 24 25 25 26 26
32 33 33 32 32 30 31 28 28 24 23 25 28 29 29 29 28 28 27 27 26 26 25 24 25 24 23 24 23 25 25 25 25 25 24 23 23 22 23 24 25 24 24 25 25 26 26 26 26
32 32 32 31 32 31 31 29 27 25 25 26 28 29 29 29 29 28 28 27 27 26 24 24 24 24 24 23 24 24 24 24 24 25 25 23 23 23 24 25 24 23 25 25 26 26 26 26 27
32 34 34 33 32 33 33 31 27 26 27 27 28 29 29 29 30 28 28 27 27 26 25 24 24 24 23 23 23 24 25 24 25 25 25 23 23 23 23 24 24 25 25 25 26 25 26 26 26
34 34 33 33 33 34 33 32 29 27 27 27 28 29 30 30 30 29 28 27 27 26 25 24 24 24 23 24 25 25 25 25 25 25 24 23 23 23 23 25 24 24 26 25 24 25 25 26 26
33 33 32 33 33 34 33 32 31 27 27 28 28 27 30 31 31 29 29 28 27 27 25 24 24 23 23 24 25 26 26 26 24 23 24 24 23 23 23 24 24 25 25 24 24 24 27 27 26
32 33 32 33 32 33 33 31 31 30 27 27 27 29 29 30 31 30 29 29 28 27 26 25 24 24 23 25 24 24 24 25 25 25 25 24 23 23 23 23 25 24 25 26 24 24 25 28 26
32 32 32 32 33 33 34 30 30 29 27 27 28 27 30 30 30 31 30 29 29 28 27 25 24 24 23 23 25 25 26 27 27 26 26 24 24 23 23 23 23 23 25 25 25 25 26 26 27
32 32 32 32 33 33 33 34 30 27 27 28 28 27 28 30 31 31 30 29 29 28 28 26 25 24 24 24 24 25 24 27 26 27 25 25 23 23 23 23 23 23 24 24 25 24 24 26 27
31 31 31 32 34 32 34 34 30 30 28 29 29 30 29 30 31 31 31 30 29 29 28 27 25 24 23 23 23 24 25 26 27 25 26 26 26 24 23 23 23 23 24 24 24 24 24 25 25
31 32 30 30 31 33 34 33 29 28 28 28 28 29 31 30 29 31 31 30 30 29 28 28 26 24 24 24 24 24 24 25 25 25 25 27 27 27 24 24 23 24 23 23 24 23 25 24 25
30 32 32 30 31 33 32 31 28 28 28 28 28 29 30 32 32 30 29 30 30 29 28 27 27 25 24 24 24 24 24 25 25 26 27 26 27 27 26 24 24 24 24 24 23 24 24 25 25
30 31 34 33 35 34 33 28 29 29 27 26 24 24 27 29 32 31 29 30 30 29 28 28 27 25 25 25 24 24 24 24 26 26 26 26 26 27 26 25 24 24 24 24 24 25 24 24 24
30 32 30 32 31 31 31 29 29 27 25 24 22 22 23 29 28 29 31 31 30 29 29 28 27 26 25 25 25 25 25 24 24 25 25 25 26 26 26 25 25 25 24 24 24 25 24 24 25
29 30 30 33 32 32 30 30 27 25 22 22 21 20 20 21 26 29 29 29 29 29 29 28 28 27 26 26 26 26 25 25 24 24 24 24 25 25 25 25 25 25 25 24 24 25 25 24 24
26 28 29 31 30 32 33 27 26 25 23 23 22 20 20 20 22 20 20 23 27 27 29 29 28 28 27 27 26 26 25 25 25 24 25 24 24 25 25 25 25 25 25 25 24 25 26 25 25

GFSSGP_925_temp_087.txt.gz
Temp
22 24 26 24 26 26 28 29 32 31 31 34 35 35 34 32 30 29 28 28 27 26 23 22 21 21 20 20 21 21 22 21 22 21 21 21 21 21 21 21 21 21 21 21 21 21 21 21 21
26 27 26 23 27 28 28 31 30 32 34 34 35 34 33 30 31 31 29 28 28 27 25 24 21 21 21 20 21 21 22 21 21 21 21 21 21 21 21 21 21 21 21 21 21 21 21 21 21
25 27 24 24 28 28 29 31 32 34 34 34 33 33 31 29 31 30 29 28 28 27 26 22 21 21 21 21 21 21 21 21 21 21 21 21 21 21 21 21 21 21 21 21 21 21 21 21 21
28 26 27 24 30 31 31 32 34 32 32 34 33 29 30 31 31 29 29 29 29 27 26 22 22 21 21 21 21 21 21 21 20 21 21 21 21 21 21 21 21 21 21 21 21 21 21 21 21
28 27 27 29 30 32 33 34 34 32 32 32 31 30 29 31 30 29 29 30 29 26 25 23 22 22 21 21 21 21 21 21 21 21 21 21 21 21 21 21 21 21 21 22 22 21 21 21 22
25 28 29 30 30 31 32 28 32 32 31 31 30 28 29 29 29 29 30 30 29 29 27 23 22 21 21 21 21 20 21 21 21 20 20 21 21 21 21 21 21 21 22 22 21 21 21 22 22
27 28 29 30 30 29 29 27 28 31 30 29 31 30 29 30 29 30 30 30 29 29 28 25 24 22 21 21 21 21 21 20 20 20 21 21 21 21 21 21 21 21 21 22 22 21 22 23 22
29 29 30 32 30 29 29 24 25 29 28 29 33 30 29 30 30 30 31 30 29 30 29 26 26 25 24 23 21 21 21 21 20 21 21 23 22 21 21 22 21 21 21 23 22 22 22 23 23
32 28 30 31 31 29 28 25 24 26 29 31 32 32 31 29 30 31 31 28 29 29 29 27 26 24 24 23 22 22 22 22 22 22 22 23 24 24 23 22 21 22 22 22 23 23 23 23 24
31 29 31 32 32 30 29 25 24 27 30 30 32 32 30 30 30 31 31 30 29 29 29 26 25 26 24 26 23 23 22 23 24 25 24 23 24 24 24 22 22 22 23 23 24 23 22 23 25
31 30 32 33 33 32 29 26 26 27 28 30 30 31 31 30 31 31 31 31 31 30 28 28 26 26 26 26 26 25 25 26 25 24 24 25 25 25 25 23 23 23 23 25 24 24 23 25 28
31 33 33 34 34 33 30 28 27 27 27 31 31 31 31 31 32 32 32 31 31 30 28 27 27 27 27 27 28 28 27 26 25 24 25 25 26 26 26 24 26 24 23 25 25 26 26 26 26
31 33 35 35 34 32 31 29 28 27 28 30 30 31 31 32 32 31 31 31 30 29 29 28 27 26 26 26 26 26 27 27 25 25 25 25 26 26 26 26 26 27 26 26 26 26 26 27 26
35 35 35 36 36 33 30 30 30 27 28 28 29 31 32 32 32 31 31 31 29 29 29 28 26 25 26 26 25 26 27 27 27 26 25 25 26 25 26 26 26 24 25 24 26 24 27 26 27
35 34 35 36 35 33 33 30 28 27 28 28 30 31 32 32 32 31 31 30 29 29 28 27 27 26 25 25 24 25 27 26 27 25 25 25 25 25 25 26 25 26 25 25 26 26 27 28 27
34 35 33 35 35 34 32 28 27 25 26 28 31 32 32 32 32 31 31 30 29 29 28 27 28 26 26 25 25 25 27 26 26 26 25 25 24 25 25 25 26 26 26 26 26 26 27 26 26
34 35 33 34 35 34 31 29 28 28 26 28 30 32 32 32 32 31 30 30 29 28 27 27 27 26 26 25 26 25 26 25 26 25 25 25 25 24 24 25 25 25 26 26 27 27 26 27 27
35 35 36 33 35 35 31 31 28 28 26 26 30 30 31 31 32 31 30 30 29 28 27 26 27 26 26 25 25 25 26 26 25 25 24 24 24 24 24 25 25 25 27 26 26 27 27 26 27
37 37 35 30 36 35 33 32 28 26 27 28 29 29 30 31 32 31 31 30 29 28 27 26 26 25 26 26 27 26 26 26 25 26 25 25 24 24 24 25 25 24 26 25 26 26 26 28 27
36 37 36 33 36 36 35 33 31 30 31 30 29 29 29 31 32 31 30 30 30 28 27 26 26 25 25 26 27 28 25 26 27 26 26 25 25 24 25 24 26 25 26 25 25 26 27 28 27
36 37 36 36 35 37 36 32 31 29 31 30 29 30 29 31 32 30 30 30 30 29 27 26 26 25 25 26 26 26 26 25 27 26 26 26 25 25 24 24 23 25 25 26 25 26 27 25 28
35 37 36 36 35 35 37 33 33 30 29 30 29 28 29 30 31 31 29 30 31 29 28 26 25 25 25 25 26 26 27 28 27 27 25 26 26 25 25 25 25 25 25 25 26 26 26 27 29
36 37 36 36 35 36 36 30 25 33 30 30 29 29 30 29 32 30 30 29 31 30 28 27 25 25 25 25 24 26 26 27 26 27 26 26 25 25 25 25 25 24 25 26 25 25 25 27 28
35 36 35 35 36 35 37 35 25 32 32 32 30 29 31 30 29 31 31 29 30 31 30 28 26 25 25 25 25 25 27 26 26 27 27 27 26 25 25 25 25 24 25 25 25 25 25 25 26
34 33 32 32 33 35 37 35 27 31 32 33 31 32 32 31 29 31 28 30 30 31 31 29 27 25 25 25 25 25 25 26 26 26 27 26 27 27 25 24 24 25 24 25 25 25 25 25 26
33 34 34 31 33 35 38 33 30 31 32 31 30 32 32 34 33 29 31 30 30 31 31 30 28 26 25 25 25 25 25 26 26 26 27 28 28 29 25 25 25 25 25 25 24 25 25 26 25
33 33 37 36 37 36 34 30 31 31 30 26 24 26 30 33 34 32 31 28 30 31 31 30 29 27 26 26 25 25 25 25 27 28 27 27 28 25 27 26 25 25 26 25 25 25 25 25 25
32 35 34 35 33 34 33 31 32 30 28 24 22 23 26 29 33 32 31 27 23 30 30 30 29 28 27 27 26 26 26 25 26 27 26 27 28 27 26 26 26 25 25 25 24 26 26 25 26
32 32 34 36 36 35 32 31 32 28 25 23 21 21 21 24 25 27 23 22 23 30 30 30 30 29 28 27 27 27 26 26 25 26 26 26 26 26 27 26 26 26 26 25 25 25 26 25 25
32 33 33 33 33 35 33 29 30 28 27 23 21 20 22 23 23 22 22 20 20 22 22 21 29 30 29 28 28 27 27 27 27 26 26 26 25 26 26 26 25 25 26 26 25 25 27 27 26

GFSSGP_925_temp_093.txt.gz
Temp
24 24 23 24 23 23 26 28 30 31 31 33 32 30 30 31 28 24 24 23 22 21 21 21 21 21 22 22 21 21 21 21 21 21 21 21 21 21 21 21 21 21 21 21 21 21 21 21 21
24 23 24 23 23 25 26 29 29 30 30 31 30 29 27 26 26 25 24 23 22 21 21 22 22 21 21 21 21 21 21 21 21 21 21 21 21 21 21 21 21 21 21 21 21 21 21 21 21
24 24 22 23 24 25 27 30 31 32 32 31 30 30 28 26 27 26 25 23 23 22 22 21 21 21 21 21 21 21 21 21 21 21 21 21 21 21 21 21 21 21 21 21 21 21 21 21 22
24 24 22 23 24 26 29 31 32 30 31 31 30 28 29 28 27 26 25 24 23 23 22 21 21 21 21 21 21 21 21 21 21 21 21 21 21 21 21 21 21 21 21 21 21 22 21 22 23
25 24 23 22 24 30 27 28 31 30 30 30 30 28 27 28 27 26 25 24 23 22 23 22 21 21 21 21 21 21 21 21 21 21 21 21 21 21 21 21 21 21 21 22 21 22 23 23 23
24 22 23 23 27 26 25 26 31 30 31 30 29 28 27 28 28 27 25 24 24 22 22 21 21 21 21 21 21 21 21 21 21 21 21 21 21 21 21 21 21 21 22 21 22 23 24 23 24
25 23 24 25 25 26 26 26 24 30 30 29 29 27 27 29 28 27 26 25 23 23 22 22 21 21 21 21 21 21 21 21 21 21 21 21 21 21 21 21 21 21 21 21 22 23 24 23 24
26 25 25 25 26 25 24 25 23 24 28 31 30 27 27 27 28 28 26 25 24 23 23 22 22 21 21 21 21 22 21 21 21 21 21 21 21 21 21 22 21 21 22 22 21 22 22 24 24
28 25 26 27 26 25 25 25 23 24 27 31 31 29 29 28 28 27 27 26 24 23 23 23 22 22 22 22 21 22 21 22 23 22 22 22 22 21 22 22 22 21 22 22 23 24 24 25 25
26 25 28 31 28 26 26 25 24 26 27 24 30 31 31 29 28 27 26 25 25 25 24 23 23 23 23 22 23 23 22 22 23 23 22 22 22 22 22 22 22 22 22 23 24 24 24 24 25
24 24 31 31 29 28 26 25 25 25 26 29 29 30 30 30 29 28 26 26 25 25 25 24 24 24 23 23 23 23 23 23 24 23 23 22 23 23 23 22 22 22 22 24 24 23 23 25 25
21 25 30 31 30 29 27 27 26 26 24 29 30 30 30 29 29 28 27 26 25 25 25 25 25 25 25 24 23 23 23 24 24 24 23 24 23 24 23 23 21 22 24 25 24 24 23 24 25
24 30 30 32 31 29 29 27 26 24 23 27 31 30 30 29 29 29 26 25 27 26 26 26 25 25 25 25 24 24 24 25 25 25 25 24 24 23 24 23 25 23 23 24 24 25 24 25 26
31 30 30 32 30 30 28 27 28 24 24 28 31 29 29 29 30 28 27 26 27 27 26 26 25 25 26 26 25 25 25 25 25 25 25 24 24 24 24 24 24 24 24 23 24 25 25 26 27
30 29 28 32 31 29 29 27 26 26 28 30 30 30 30 30 30 28 28 26 26 26 26 26 26 26 26 26 25 26 25 25 25 25 25 25 25 23 23 23 22 23 23 23 24 25 25 26 27
31 26 26 31 30 29 29 25 27 26 27 29 30 31 30 31 29 29 30 27 27 27 27 26 25 26 26 25 25 25 25 26 25 25 25 25 25 25 24 23 23 24 24 24 25 26 25 26 26
29 28 28 29 30 29 28 25 27 27 26 28 30 30 30 31 28 29 30 28 27 27 27 27 26 26 25 25 26 26 26 25 25 25 25 25 25 24 25 25 24 24 25 25 25 26 26 26 26
29 30 31 28 25 25 26 26 26 26 28 29 29 29 29 30 29 30 29 29 27 28 27 27 26 26 26 25 25 25 26 25 25 25 25 24 24 24 25 24 24 25 25 26 26 26 26 26 26
32 32 30 25 27 24 25 25 25 26 27 28 29 29 29 30 29 31 29 28 27 28 27 27 26 26 26 25 25 25 25 25 25 25 25 24 24 25 25 24 24 25 26 26 25 25 26 26 26
32 32 26 25 25 25 25 26 26 26 27 28 27 28 29 29 29 29 28 27 27 27 27 26 26 26 26 26 25 25 25 24 24 25 25 24 24 24 24 24 25 25 25 25 25 26 26 26 27
31 31 29 28 25 24 25 24 25 26 28 28 27 28 28 28 29 27 29 27 27 27 27 26 26 26 26 25 25 25 25 25 25 24 24 24 25 24 24 24 25 25 25 26 25 26 26 26 27
29 33 33 28 27 25 26 23 22 25 25 26 27 27 27 28 28 29 29 27 26 26 27 26 26 26 26 24 25 26 25 24 25 25 25 25 25 24 24 25 25 25 25 25 25 25 26 26 25
31 33 32 31 29 26 26 24 24 24 25 25 26 27 27 29 28 29 28 28 26 26 26 26 25 25 26 25 25 25 25 25 25 25 25 25 25 25 25 24 25 25 25 25 25 25 26 26 25
34 33 32 29 26 27 28 26 23 23 25 24 27 27 27 28 27 29 29 29 26 26 26 26 25 25 25 25 24 25 25 25 25 25 25 25 25 25 25 25 24 25 25 25 25 25 25 26 26
32 32 27 27 26 26 28 27 23 24 23 24 23 22 28 25 28 28 27 28 27 26 25 25 25 24 25 25 25 25 25 25 25 25 25 25 25 25 25 25 24 24 24 24 25 25 25 26 26
30 29 26 28 27 29 30 23 23 24 25 24 23 23 23 23 22 25 27 28 27 27 25 25 25 25 24 25 25 25 25 24 25 25 25 25 26 25 25 25 25 24 24 24 24 25 25 25 26
30 29 30 30 30 29 26 24 23 24 23 23 23 22 22 22 23 23 24 28 28 27 26 25 25 25 25 24 25 25 25 25 25 26 26 26 26 26 26 25 25 24 24 24 24 24 24 25 25
31 30 27 27 28 29 25 24 23 24 24 23 22 21 21 21 23 22 22 22 21 22 26 25 24 24 25 25 25 25 25 26 26 26 26 26 25 26 25 25 24 24 24 24 24 24 24 24 25
29 27 29 28 28 27 23 24 22 23 23 22 22 21 20 20 20 20 19 19 20 21 20 21 21 22 22 24 25 25 25 25 26 26 26 26 26 25 25 25 25 25 24 25 24 24 25 25 25
29 29 28 25 27 25 23 21 21 23 22 22 21 20 19 19 19 19 19 18 19 19 20 21 20 20 21 21 22 25 25 25 25 25 25 26 26 26 26 25 25 25 25 25 25 25 25 25 25